Year,Month,Day,Hour,Minute,Value (Times are PST for temperature in C)
2019,05,27,00,00,15.80
2019,05,27,00,01,15.70
2019,05,27,00,02,15.70
2019,05,27,00,03,15.70
2019,05,27,00,04,15.60
2019,05,27,00,05,15.60
2019,05,27,00,06,15.60
2019,05,27,00,07,15.50
2019,05,27,00,08,15.50
2019,05,27,00,09,15.40
2019,05,27,00,10,15.40
2019,05,27,00,11,15.40
2019,05,27,00,12,15.30
2019,05,27,00,13,15.30
2019,05,27,00,14,15.30
2019,05,27,00,15,15.30
2019,05,27,00,16,15.40
2019,05,27,00,17,15.40
2019,05,27,00,18,15.50
2019,05,27,00,19,15.50
2019,05,27,00,20,15.60
2019,05,27,00,21,15.60
2019,05,27,00,22,15.60
2019,05,27,00,23,15.70
2019,05,27,00,24,15.70
2019,05,27,00,25,15.70
2019,05,27,00,26,15.70
2019,05,27,00,27,15.70
2019,05,27,00,28,15.70
2019,05,27,00,29,15.70
2019,05,27,00,30,15.70
2019,05,27,00,31,15.70
2019,05,27,00,32,15.70
2019,05,27,00,33,15.70
2019,05,27,00,34,15.70
2019,05,27,00,35,15.70
2019,05,27,00,36,15.70
2019,05,27,00,37,15.70
2019,05,27,00,38,15.70
2019,05,27,00,39,15.70
2019,05,27,00,40,15.60
2019,05,27,00,41,15.60
2019,05,27,00,42,15.60
2019,05,27,00,43,15.60
2019,05,27,00,44,15.60
2019,05,27,00,45,15.50
2019,05,27,00,46,15.50
2019,05,27,00,47,15.40
2019,05,27,00,48,15.40
2019,05,27,00,49,15.30
2019,05,27,00,50,15.30
2019,05,27,00,51,15.30
2019,05,27,00,52,15.30
2019,05,27,00,53,15.20
2019,05,27,00,54,15.20
2019,05,27,00,55,15.10
2019,05,27,00,56,15.10
2019,05,27,00,57,15.10
2019,05,27,00,58,15.00
2019,05,27,00,59,15.00
2019,05,27,01,00,14.90
2019,05,27,01,01,14.90
2019,05,27,01,02,14.80
2019,05,27,01,03,14.80
2019,05,27,01,04,14.80
2019,05,27,01,05,14.70
2019,05,27,01,06,14.70
2019,05,27,01,07,14.70
2019,05,27,01,08,14.70
2019,05,27,01,09,14.60
2019,05,27,01,10,14.60
2019,05,27,01,11,14.60
2019,05,27,01,12,14.60
2019,05,27,01,13,14.60
2019,05,27,01,14,14.50
2019,05,27,01,15,14.50
2019,05,27,01,16,14.50
2019,05,27,01,17,14.40
2019,05,27,01,18,14.40
2019,05,27,01,19,14.30
2019,05,27,01,20,14.30
2019,05,27,01,21,14.30
2019,05,27,01,22,14.20
2019,05,27,01,23,14.20
2019,05,27,01,24,14.20
2019,05,27,01,25,14.20
2019,05,27,01,26,14.20
2019,05,27,01,27,14.20
2019,05,27,01,28,14.10
2019,05,27,01,29,14.10
2019,05,27,01,30,14.10
2019,05,27,01,31,14.00
2019,05,27,01,32,14.00
2019,05,27,01,33,14.00
2019,05,27,01,34,14.00
2019,05,27,01,35,13.90
2019,05,27,01,36,13.90
2019,05,27,01,37,13.90
2019,05,27,01,38,13.80
2019,05,27,01,39,13.80
2019,05,27,01,40,13.80
2019,05,27,01,41,13.80
2019,05,27,01,42,13.80
2019,05,27,01,43,13.80
2019,05,27,01,44,13.80
2019,05,27,01,45,13.70
2019,05,27,01,46,13.70
2019,05,27,01,47,13.70
2019,05,27,01,48,13.70
2019,05,27,01,49,13.70
2019,05,27,01,50,13.60
2019,05,27,01,51,13.60
2019,05,27,01,52,13.60
2019,05,27,01,53,13.60
2019,05,27,01,54,13.60
2019,05,27,01,55,13.60
2019,05,27,01,56,13.60
2019,05,27,01,57,13.60
2019,05,27,01,58,13.60
2019,05,27,01,59,13.70
2019,05,27,02,00,13.70
2019,05,27,02,01,13.70
2019,05,27,02,02,13.80
2019,05,27,02,03,13.80
2019,05,27,02,04,13.80
2019,05,27,02,05,13.90
2019,05,27,02,06,13.90
2019,05,27,02,07,13.90
2019,05,27,02,08,14.00
2019,05,27,02,09,14.00
2019,05,27,02,10,14.00
2019,05,27,02,11,14.00
2019,05,27,02,12,14.10
2019,05,27,02,13,14.10
2019,05,27,02,14,14.20
2019,05,27,02,15,14.20
2019,05,27,02,16,14.30
2019,05,27,02,17,14.30
2019,05,27,02,18,14.40
2019,05,27,02,19,14.50
2019,05,27,02,20,14.50
2019,05,27,02,21,14.60
2019,05,27,02,22,14.60
2019,05,27,02,23,14.70
2019,05,27,02,24,14.70
2019,05,27,02,25,14.70
2019,05,27,02,26,14.70
2019,05,27,02,27,14.70
2019,05,27,02,28,14.70
2019,05,27,02,29,14.70
2019,05,27,02,30,14.70
2019,05,27,02,31,14.70
2019,05,27,02,32,14.70
2019,05,27,02,33,14.70
2019,05,27,02,34,14.70
2019,05,27,02,35,14.70
2019,05,27,02,36,14.70
2019,05,27,02,37,14.70
2019,05,27,02,38,14.70
2019,05,27,02,39,14.60
2019,05,27,02,40,14.60
2019,05,27,02,41,14.50
2019,05,27,02,42,14.40
2019,05,27,02,43,14.30
2019,05,27,02,44,14.30
2019,05,27,02,45,14.20
2019,05,27,02,46,14.20
2019,05,27,02,47,14.20
2019,05,27,02,48,14.10
2019,05,27,02,49,14.10
2019,05,27,02,50,14.10
2019,05,27,02,51,14.10
2019,05,27,02,52,14.00
2019,05,27,02,53,14.00
2019,05,27,02,54,14.00
2019,05,27,02,55,13.90
2019,05,27,02,56,13.90
2019,05,27,02,57,13.90
2019,05,27,02,58,14.00
2019,05,27,02,59,14.10
2019,05,27,03,00,14.20
2019,05,27,03,01,14.30
2019,05,27,03,02,14.40
2019,05,27,03,03,14.50
2019,05,27,03,04,14.60
2019,05,27,03,05,14.80
2019,05,27,03,06,14.90
2019,05,27,03,07,15.00
2019,05,27,03,08,15.10
2019,05,27,03,09,15.20
2019,05,27,03,10,15.20
2019,05,27,03,11,15.30
2019,05,27,03,12,15.30
2019,05,27,03,13,15.40
2019,05,27,03,14,15.40
2019,05,27,03,15,15.50
2019,05,27,03,16,15.60
2019,05,27,03,17,15.60
2019,05,27,03,18,15.60
2019,05,27,03,19,15.60
2019,05,27,03,20,15.60
2019,05,27,03,21,15.60
2019,05,27,03,22,15.60
2019,05,27,03,23,15.60
2019,05,27,03,24,15.50
2019,05,27,03,25,15.50
2019,05,27,03,26,15.40
2019,05,27,03,27,15.40
2019,05,27,03,28,15.40
2019,05,27,03,29,15.30
2019,05,27,03,30,15.30
2019,05,27,03,31,15.30
2019,05,27,03,32,15.30
2019,05,27,03,33,15.30
2019,05,27,03,34,15.30
2019,05,27,03,35,15.30
2019,05,27,03,36,15.30
2019,05,27,03,37,15.30
2019,05,27,03,38,15.30
2019,05,27,03,39,15.30
2019,05,27,03,40,15.30
2019,05,27,03,41,15.30
2019,05,27,03,42,15.30
2019,05,27,03,43,15.30
2019,05,27,03,44,15.30
2019,05,27,03,45,15.20
2019,05,27,03,46,15.20
2019,05,27,03,47,15.10
2019,05,27,03,48,15.00
2019,05,27,03,49,14.90
2019,05,27,03,50,14.80
2019,05,27,03,51,14.80
2019,05,27,03,52,14.70
2019,05,27,03,53,14.60
2019,05,27,03,54,14.60
2019,05,27,03,55,14.60
2019,05,27,03,56,14.50
2019,05,27,03,57,14.50
2019,05,27,03,58,14.40
2019,05,27,03,59,14.40
2019,05,27,04,00,14.30
2019,05,27,04,01,14.30
2019,05,27,04,02,14.20
2019,05,27,04,03,14.20
2019,05,27,04,04,14.10
2019,05,27,04,05,14.10
2019,05,27,04,06,14.00
2019,05,27,04,07,14.00
2019,05,27,04,08,13.90
2019,05,27,04,09,13.90
2019,05,27,04,10,13.90
2019,05,27,04,11,13.90
2019,05,27,04,12,13.80
2019,05,27,04,13,13.80
2019,05,27,04,14,13.80
2019,05,27,04,15,13.80
2019,05,27,04,16,13.70
2019,05,27,04,17,13.70
2019,05,27,04,18,13.70
2019,05,27,04,19,13.70
2019,05,27,04,20,13.70
2019,05,27,04,21,13.60
2019,05,27,04,22,13.60
2019,05,27,04,23,13.60
2019,05,27,04,24,13.50
2019,05,27,04,25,13.50
2019,05,27,04,26,13.50
2019,05,27,04,27,13.40
2019,05,27,04,28,13.40
2019,05,27,04,29,13.40
2019,05,27,04,30,13.30
2019,05,27,04,31,13.30
2019,05,27,04,32,13.30
2019,05,27,04,33,13.30
2019,05,27,04,34,13.30
2019,05,27,04,35,13.20
2019,05,27,04,36,13.20
2019,05,27,04,37,13.20
2019,05,27,04,38,13.10
2019,05,27,04,39,13.10
2019,05,27,04,40,13.10
2019,05,27,04,41,13.10
2019,05,27,04,42,13.00
2019,05,27,04,43,13.00
2019,05,27,04,44,13.00
2019,05,27,04,45,13.00
2019,05,27,04,46,13.00
2019,05,27,04,47,13.00
2019,05,27,04,48,13.00
2019,05,27,04,49,13.00
2019,05,27,04,50,13.00
2019,05,27,04,51,13.00
2019,05,27,04,52,13.00
2019,05,27,04,53,13.00
2019,05,27,04,54,13.00
2019,05,27,04,55,12.90
2019,05,27,04,56,12.90
2019,05,27,04,57,12.90
2019,05,27,04,58,12.90
2019,05,27,04,59,12.80
2019,05,27,05,00,12.80
2019,05,27,05,01,12.80
2019,05,27,05,02,12.80
2019,05,27,05,03,12.80
2019,05,27,05,04,12.70
2019,05,27,05,05,12.70
2019,05,27,05,06,12.70
2019,05,27,05,07,12.70
2019,05,27,05,08,12.60
2019,05,27,05,09,12.60
2019,05,27,05,10,12.60
2019,05,27,05,11,12.50
2019,05,27,05,12,12.50
2019,05,27,05,13,12.50
2019,05,27,05,14,12.40
2019,05,27,05,15,12.40
2019,05,27,05,16,12.40
2019,05,27,05,17,12.40
2019,05,27,05,18,12.30
2019,05,27,05,19,12.30
2019,05,27,05,20,12.30
2019,05,27,05,21,12.30
2019,05,27,05,22,12.30
2019,05,27,05,23,12.30
2019,05,27,05,24,12.30
2019,05,27,05,25,12.20
2019,05,27,05,26,12.20
2019,05,27,05,27,12.20
2019,05,27,05,28,12.20
2019,05,27,05,29,12.20
2019,05,27,05,30,12.10
2019,05,27,05,31,12.10
2019,05,27,05,32,12.10
2019,05,27,05,33,12.10
2019,05,27,05,34,12.10
2019,05,27,05,35,12.10
2019,05,27,05,36,12.10
2019,05,27,05,37,12.10
2019,05,27,05,38,12.10
2019,05,27,05,39,12.10
2019,05,27,05,40,12.10
2019,05,27,05,41,12.00
2019,05,27,05,42,12.00
2019,05,27,05,43,12.00
2019,05,27,05,44,12.00
2019,05,27,05,45,11.90
2019,05,27,05,46,11.90
2019,05,27,05,47,11.90
2019,05,27,05,48,11.90
2019,05,27,05,49,11.90
2019,05,27,05,50,11.90
2019,05,27,05,51,11.90
2019,05,27,05,52,11.90
2019,05,27,05,53,11.90
2019,05,27,05,54,11.90
2019,05,27,05,55,11.90
2019,05,27,05,56,11.90
2019,05,27,05,57,11.90
2019,05,27,05,58,11.90
2019,05,27,05,59,11.90
2019,05,27,06,00,11.90
2019,05,27,06,01,11.90
2019,05,27,06,02,11.90
2019,05,27,06,03,11.90
2019,05,27,06,04,11.90
2019,05,27,06,05,11.90
2019,05,27,06,06,11.90
2019,05,27,06,07,11.90
2019,05,27,06,08,11.90
2019,05,27,06,09,11.90
2019,05,27,06,10,11.90
2019,05,27,06,11,11.90
2019,05,27,06,12,11.90
2019,05,27,06,13,11.90
2019,05,27,06,14,11.90
2019,05,27,06,15,11.90
2019,05,27,06,16,11.90
2019,05,27,06,17,11.90
2019,05,27,06,18,11.90
2019,05,27,06,19,12.00
2019,05,27,06,20,12.00
2019,05,27,06,21,12.00
2019,05,27,06,22,12.10
2019,05,27,06,23,12.10
2019,05,27,06,24,12.10
2019,05,27,06,25,12.20
2019,05,27,06,26,12.20
2019,05,27,06,27,12.30
2019,05,27,06,28,12.30
2019,05,27,06,29,12.40
2019,05,27,06,30,12.50
2019,05,27,06,31,12.60
2019,05,27,06,32,12.60
2019,05,27,06,33,12.70
2019,05,27,06,34,12.70
2019,05,27,06,35,12.80
2019,05,27,06,36,12.80
2019,05,27,06,37,12.90
2019,05,27,06,38,12.90
2019,05,27,06,39,13.00
2019,05,27,06,40,13.10
2019,05,27,06,41,13.10
2019,05,27,06,42,13.20
2019,05,27,06,43,13.20
2019,05,27,06,44,13.30
2019,05,27,06,45,13.30
2019,05,27,06,46,13.40
2019,05,27,06,47,13.40
2019,05,27,06,48,13.50
2019,05,27,06,49,13.50
2019,05,27,06,50,13.60
2019,05,27,06,51,13.70
2019,05,27,06,52,13.70
2019,05,27,06,53,13.80
2019,05,27,06,54,13.80
2019,05,27,06,55,13.90
2019,05,27,06,56,13.90
2019,05,27,06,57,14.00
2019,05,27,06,58,14.10
2019,05,27,06,59,14.10
2019,05,27,07,00,14.20
2019,05,27,07,01,14.20
2019,05,27,07,02,14.30
2019,05,27,07,03,14.30
2019,05,27,07,04,14.40
2019,05,27,07,05,14.40
2019,05,27,07,06,14.50
2019,05,27,07,07,14.50
2019,05,27,07,08,14.60
2019,05,27,07,09,14.70
2019,05,27,07,10,14.80
2019,05,27,07,11,14.90
2019,05,27,07,12,15.00
2019,05,27,07,13,15.10
2019,05,27,07,14,15.10
2019,05,27,07,15,15.20
2019,05,27,07,16,15.30
2019,05,27,07,17,15.30
2019,05,27,07,18,15.40
2019,05,27,07,19,15.50
2019,05,27,07,20,15.50
2019,05,27,07,21,15.60
2019,05,27,07,22,15.60
2019,05,27,07,23,15.60
2019,05,27,07,24,15.60
2019,05,27,07,25,15.70
2019,05,27,07,26,15.70
2019,05,27,07,27,15.70
2019,05,27,07,28,15.80
2019,05,27,07,29,15.80
2019,05,27,07,30,15.80
2019,05,27,07,31,15.90
2019,05,27,07,32,15.90
2019,05,27,07,33,16.00
2019,05,27,07,34,16.00
2019,05,27,07,35,16.10
2019,05,27,07,36,16.20
2019,05,27,07,37,16.20
2019,05,27,07,38,16.30
2019,05,27,07,39,16.30
2019,05,27,07,40,16.30
2019,05,27,07,41,16.30
2019,05,27,07,42,16.30
2019,05,27,07,43,16.30
2019,05,27,07,44,16.30
2019,05,27,07,45,16.30
2019,05,27,07,46,16.30
2019,05,27,07,47,16.30
2019,05,27,07,48,16.30
2019,05,27,07,49,16.40
2019,05,27,07,50,16.40
2019,05,27,07,51,16.40
2019,05,27,07,52,16.50
2019,05,27,07,53,16.50
2019,05,27,07,54,16.50
2019,05,27,07,55,16.60
2019,05,27,07,56,16.60
2019,05,27,07,57,16.60
2019,05,27,07,58,16.60
2019,05,27,07,59,16.60
2019,05,27,08,00,16.60
2019,05,27,08,01,16.70
2019,05,27,08,02,16.70
2019,05,27,08,03,16.70
2019,05,27,08,04,16.70
2019,05,27,08,05,16.80
2019,05,27,08,06,16.80
2019,05,27,08,07,16.80
2019,05,27,08,08,16.80
2019,05,27,08,09,16.90
2019,05,27,08,10,16.90
2019,05,27,08,11,16.90
2019,05,27,08,12,16.90
2019,05,27,08,13,16.90
2019,05,27,08,14,17.00
2019,05,27,08,15,17.00
2019,05,27,08,16,17.00
2019,05,27,08,17,17.10
2019,05,27,08,18,17.10
2019,05,27,08,19,17.20
2019,05,27,08,20,17.20
2019,05,27,08,21,17.30
2019,05,27,08,22,17.30
2019,05,27,08,23,17.40
2019,05,27,08,24,17.50
2019,05,27,08,25,17.60
2019,05,27,08,26,17.60
2019,05,27,08,27,17.70
2019,05,27,08,28,17.70
2019,05,27,08,29,17.80
2019,05,27,08,30,17.90
2019,05,27,08,31,18.00
2019,05,27,08,32,18.10
2019,05,27,08,33,18.20
2019,05,27,08,34,18.20
2019,05,27,08,35,18.20
2019,05,27,08,36,18.30
2019,05,27,08,37,18.30
2019,05,27,08,38,18.40
2019,05,27,08,39,18.40
2019,05,27,08,40,18.50
2019,05,27,08,41,18.50
2019,05,27,08,42,18.50
2019,05,27,08,43,18.60
2019,05,27,08,44,18.60
2019,05,27,08,45,18.60
2019,05,27,08,46,18.60
2019,05,27,08,47,18.70
2019,05,27,08,48,18.80
2019,05,27,08,49,18.80
2019,05,27,08,50,18.90
2019,05,27,08,51,18.90
2019,05,27,08,52,19.00
2019,05,27,08,53,19.00
2019,05,27,08,54,19.10
2019,05,27,08,55,19.10
2019,05,27,08,56,19.10
2019,05,27,08,57,19.10
2019,05,27,08,58,19.10
2019,05,27,08,59,19.10
2019,05,27,09,00,19.00
2019,05,27,09,01,19.00
2019,05,27,09,02,19.00
2019,05,27,09,03,18.90
2019,05,27,09,04,18.90
2019,05,27,09,05,18.80
2019,05,27,09,06,18.80
2019,05,27,09,07,18.80
2019,05,27,09,08,18.80
2019,05,27,09,09,18.80
2019,05,27,09,10,18.90
2019,05,27,09,11,18.90
2019,05,27,09,12,18.90
2019,05,27,09,13,19.00
2019,05,27,09,14,19.00
2019,05,27,09,15,19.10
2019,05,27,09,16,19.10
2019,05,27,09,17,19.10
2019,05,27,09,18,19.20
2019,05,27,09,19,19.30
2019,05,27,09,20,19.30
2019,05,27,09,21,19.40
2019,05,27,09,22,19.40
2019,05,27,09,23,19.40
2019,05,27,09,24,19.40
2019,05,27,09,25,19.40
2019,05,27,09,26,19.40
2019,05,27,09,27,19.50
2019,05,27,09,28,19.60
2019,05,27,09,29,19.60
2019,05,27,09,30,19.70
2019,05,27,09,31,19.70
2019,05,27,09,32,19.70
2019,05,27,09,33,19.70
2019,05,27,09,34,19.70
2019,05,27,09,35,19.70
2019,05,27,09,36,19.70
2019,05,27,09,37,19.70
2019,05,27,09,38,19.70
2019,05,27,09,39,19.70
2019,05,27,09,40,19.70
2019,05,27,09,41,19.80
2019,05,27,09,42,19.80
2019,05,27,09,43,19.80
2019,05,27,09,44,19.90
2019,05,27,09,45,19.90
2019,05,27,09,46,20.00
2019,05,27,09,47,20.10
2019,05,27,09,48,20.10
2019,05,27,09,49,20.10
2019,05,27,09,50,20.20
2019,05,27,09,51,20.20
2019,05,27,09,52,20.30
2019,05,27,09,53,20.30
2019,05,27,09,54,20.30
2019,05,27,09,55,20.30
2019,05,27,09,56,20.40
2019,05,27,09,57,20.50
2019,05,27,09,58,20.50
2019,05,27,09,59,20.60
2019,05,27,10,00,20.60
2019,05,27,10,01,20.70
2019,05,27,10,02,20.70
2019,05,27,10,03,20.70
2019,05,27,10,04,20.70
2019,05,27,10,05,20.80
2019,05,27,10,06,20.80
2019,05,27,10,07,20.80
2019,05,27,10,08,20.90
2019,05,27,10,09,20.90
2019,05,27,10,10,20.90
2019,05,27,10,11,20.80
2019,05,27,10,12,20.80
2019,05,27,10,13,20.80
2019,05,27,10,14,20.90
2019,05,27,10,15,20.90
2019,05,27,10,16,20.90
2019,05,27,10,17,21.00
2019,05,27,10,18,21.10
2019,05,27,10,19,21.10
2019,05,27,10,20,21.10
2019,05,27,10,21,21.20
2019,05,27,10,22,21.20
2019,05,27,10,23,21.30
2019,05,27,10,24,21.40
2019,05,27,10,25,21.50
2019,05,27,10,26,21.60
2019,05,27,10,27,21.70
2019,05,27,10,28,21.80
2019,05,27,10,29,21.90
2019,05,27,10,30,21.90
2019,05,27,10,31,21.90
2019,05,27,10,32,22.00
2019,05,27,10,33,22.10
2019,05,27,10,34,22.20
2019,05,27,10,35,22.30
2019,05,27,10,36,22.40
2019,05,27,10,37,22.40
2019,05,27,10,38,22.50
2019,05,27,10,39,22.60
2019,05,27,10,40,22.70
2019,05,27,10,41,22.80
2019,05,27,10,42,22.90
2019,05,27,10,43,22.90
2019,05,27,10,44,23.00
2019,05,27,10,45,23.10
2019,05,27,10,46,23.20
2019,05,27,10,47,23.20
2019,05,27,10,48,23.30
2019,05,27,10,49,23.30
2019,05,27,10,50,23.20
2019,05,27,10,51,23.10
2019,05,27,10,52,23.10
2019,05,27,10,53,23.00
2019,05,27,10,54,22.90
2019,05,27,10,55,22.90
2019,05,27,10,56,23.00
2019,05,27,10,57,23.00
2019,05,27,10,58,23.10
2019,05,27,10,59,23.30
2019,05,27,11,00,23.40
2019,05,27,11,01,23.40
2019,05,27,11,02,23.30
2019,05,27,11,03,23.30
2019,05,27,11,04,23.20
2019,05,27,11,05,23.20
2019,05,27,11,06,23.20
2019,05,27,11,07,23.20
2019,05,27,11,08,23.20
2019,05,27,11,09,23.10
2019,05,27,11,10,23.20
2019,05,27,11,11,23.20
2019,05,27,11,12,23.30
2019,05,27,11,13,23.40
2019,05,27,11,14,23.50
2019,05,27,11,15,23.60
2019,05,27,11,16,23.80
2019,05,27,11,17,23.80
2019,05,27,11,18,23.90
2019,05,27,11,19,24.00
2019,05,27,11,20,24.10
2019,05,27,11,21,24.20
2019,05,27,11,22,24.30
2019,05,27,11,23,24.40
2019,05,27,11,24,24.40
2019,05,27,11,25,24.50
2019,05,27,11,26,24.50
2019,05,27,11,27,24.60
2019,05,27,11,28,24.60
2019,05,27,11,29,24.60
2019,05,27,11,30,24.50
2019,05,27,11,31,24.50
2019,05,27,11,32,24.50
2019,05,27,11,33,24.50
2019,05,27,11,34,24.60
2019,05,27,11,35,24.60
2019,05,27,11,36,24.70
2019,05,27,11,37,24.70
2019,05,27,11,38,24.80
2019,05,27,11,39,24.80
2019,05,27,11,40,24.80
2019,05,27,11,41,24.80
2019,05,27,11,42,24.80
2019,05,27,11,43,24.80
2019,05,27,11,44,24.80
2019,05,27,11,45,24.80
2019,05,27,11,46,24.70
2019,05,27,11,47,24.70
2019,05,27,11,48,24.70
2019,05,27,11,49,24.60
2019,05,27,11,50,24.60
2019,05,27,11,51,24.50
2019,05,27,11,52,24.50
2019,05,27,11,53,24.40
2019,05,27,11,54,24.30
2019,05,27,11,55,24.30
2019,05,27,11,56,24.40
2019,05,27,11,57,24.40
2019,05,27,11,58,24.50
2019,05,27,11,59,24.50
2019,05,27,12,00,24.60
2019,05,27,12,01,24.70
2019,05,27,12,02,24.80
2019,05,27,12,03,24.90
2019,05,27,12,04,25.00
2019,05,27,12,05,25.00
2019,05,27,12,06,25.10
2019,05,27,12,07,25.10
2019,05,27,12,08,25.20
2019,05,27,12,09,25.30
2019,05,27,12,10,25.40
2019,05,27,12,11,25.40
2019,05,27,12,12,25.40
2019,05,27,12,13,25.40
2019,05,27,12,14,25.40
2019,05,27,12,15,25.30
2019,05,27,12,16,25.30
2019,05,27,12,17,25.30
2019,05,27,12,18,25.30
2019,05,27,12,19,25.30
2019,05,27,12,20,25.20
2019,05,27,12,21,25.20
2019,05,27,12,22,25.10
2019,05,27,12,23,25.00
2019,05,27,12,24,24.80
2019,05,27,12,25,24.80
2019,05,27,12,26,24.80
2019,05,27,12,27,24.80
2019,05,27,12,28,24.70
2019,05,27,12,29,24.70
2019,05,27,12,30,24.80
2019,05,27,12,31,25.00
2019,05,27,12,32,25.10
2019,05,27,12,33,25.20
2019,05,27,12,34,25.30
2019,05,27,12,35,25.40
2019,05,27,12,36,25.60
2019,05,27,12,37,25.70
2019,05,27,12,38,25.70
2019,05,27,12,39,25.80
2019,05,27,12,40,25.80
2019,05,27,12,41,25.60
2019,05,27,12,42,25.50
2019,05,27,12,43,25.40
2019,05,27,12,44,25.30
2019,05,27,12,45,25.40
2019,05,27,12,46,25.50
2019,05,27,12,47,25.60
2019,05,27,12,48,25.60
2019,05,27,12,49,25.70
2019,05,27,12,50,25.80
2019,05,27,12,51,25.80
2019,05,27,12,52,25.90
2019,05,27,12,53,25.90
2019,05,27,12,54,25.90
2019,05,27,12,55,26.00
2019,05,27,12,56,26.10
2019,05,27,12,57,26.10
2019,05,27,12,58,26.20
2019,05,27,12,59,26.10
2019,05,27,13,00,26.10
2019,05,27,13,01,26.10
2019,05,27,13,02,26.10
2019,05,27,13,03,26.10
2019,05,27,13,04,26.10
2019,05,27,13,05,26.10
2019,05,27,13,06,26.00
2019,05,27,13,07,25.90
2019,05,27,13,08,25.90
2019,05,27,13,09,26.00
2019,05,27,13,10,26.00
2019,05,27,13,11,25.80
2019,05,27,13,12,25.70
2019,05,27,13,13,25.70
2019,05,27,13,14,25.60
2019,05,27,13,15,25.60
2019,05,27,13,16,25.60
2019,05,27,13,17,25.70
2019,05,27,13,18,25.80
2019,05,27,13,19,25.90
2019,05,27,13,20,26.10
2019,05,27,13,21,26.20
2019,05,27,13,22,26.30
2019,05,27,13,23,26.30
2019,05,27,13,24,26.30
2019,05,27,13,25,26.30
2019,05,27,13,26,26.30
2019,05,27,13,27,26.30
2019,05,27,13,28,26.30
2019,05,27,13,29,26.30
2019,05,27,13,30,26.30
2019,05,27,13,31,26.20
2019,05,27,13,32,26.10
2019,05,27,13,33,26.10
2019,05,27,13,34,26.10
2019,05,27,13,35,26.10
2019,05,27,13,36,26.20
2019,05,27,13,37,26.40
2019,05,27,13,38,26.50
2019,05,27,13,39,26.60
2019,05,27,13,40,26.70
2019,05,27,13,41,26.70
2019,05,27,13,42,26.70
2019,05,27,13,43,26.80
2019,05,27,13,44,26.80
2019,05,27,13,45,26.80
2019,05,27,13,46,26.80
2019,05,27,13,47,26.80
2019,05,27,13,48,26.80
2019,05,27,13,49,26.80
2019,05,27,13,50,26.70
2019,05,27,13,51,26.70
2019,05,27,13,52,26.80
2019,05,27,13,53,26.80
2019,05,27,13,54,26.90
2019,05,27,13,55,26.90
2019,05,27,13,56,26.90
2019,05,27,13,57,26.90
2019,05,27,13,58,26.90
2019,05,27,13,59,26.90
2019,05,27,14,00,26.80
2019,05,27,14,01,26.80
2019,05,27,14,02,26.80
2019,05,27,14,03,26.80
2019,05,27,14,04,26.90
2019,05,27,14,05,26.90
2019,05,27,14,06,27.00
2019,05,27,14,07,27.00
2019,05,27,14,08,27.10
2019,05,27,14,09,27.20
2019,05,27,14,10,27.20
2019,05,27,14,11,27.30
2019,05,27,14,12,27.30
2019,05,27,14,13,27.30
2019,05,27,14,14,27.30
2019,05,27,14,15,27.20
2019,05,27,14,16,27.20
2019,05,27,14,17,27.10
2019,05,27,14,18,27.00
2019,05,27,14,19,27.00
2019,05,27,14,20,27.00
2019,05,27,14,21,27.10
2019,05,27,14,22,27.10
2019,05,27,14,23,27.10
2019,05,27,14,24,27.10
2019,05,27,14,25,27.00
2019,05,27,14,26,27.00
2019,05,27,14,27,27.00
2019,05,27,14,28,27.00
2019,05,27,14,29,27.10
2019,05,27,14,30,27.20
2019,05,27,14,31,27.20
2019,05,27,14,32,27.30
2019,05,27,14,33,27.30
2019,05,27,14,34,27.30
2019,05,27,14,35,27.40
2019,05,27,14,36,27.40
2019,05,27,14,37,27.40
2019,05,27,14,38,27.30
2019,05,27,14,39,27.20
2019,05,27,14,40,27.10
2019,05,27,14,41,27.10
2019,05,27,14,42,27.00
2019,05,27,14,43,27.00
2019,05,27,14,44,26.90
2019,05,27,14,45,26.90
2019,05,27,14,46,26.90
2019,05,27,14,47,26.90
2019,05,27,14,48,26.90
2019,05,27,14,49,26.90
2019,05,27,14,50,26.90
2019,05,27,14,51,26.90
2019,05,27,14,52,26.90
2019,05,27,14,53,26.80
2019,05,27,14,54,26.80
2019,05,27,14,55,26.80
2019,05,27,14,56,26.90
2019,05,27,14,57,26.80
2019,05,27,14,58,26.80
2019,05,27,14,59,26.80
2019,05,27,15,00,26.80
2019,05,27,15,01,26.80
2019,05,27,15,02,26.80
2019,05,27,15,03,26.90
2019,05,27,15,04,26.80
2019,05,27,15,05,26.80
2019,05,27,15,06,26.80
2019,05,27,15,07,26.80
2019,05,27,15,08,26.80
2019,05,27,15,09,26.80
2019,05,27,15,10,26.80
2019,05,27,15,11,26.90
2019,05,27,15,12,26.90
2019,05,27,15,13,27.00
2019,05,27,15,14,27.10
2019,05,27,15,15,27.20
2019,05,27,15,16,27.20
2019,05,27,15,17,27.20
2019,05,27,15,18,27.20
2019,05,27,15,19,27.10
2019,05,27,15,20,27.00
2019,05,27,15,21,27.00
2019,05,27,15,22,27.00
2019,05,27,15,23,27.10
2019,05,27,15,24,27.10
2019,05,27,15,25,27.10
2019,05,27,15,26,27.10
2019,05,27,15,27,27.10
2019,05,27,15,28,27.10
2019,05,27,15,29,27.10
2019,05,27,15,30,27.20
2019,05,27,15,31,27.20
2019,05,27,15,32,27.30
2019,05,27,15,33,27.40
2019,05,27,15,34,27.50
2019,05,27,15,35,27.60
2019,05,27,15,36,27.60
2019,05,27,15,37,27.70
2019,05,27,15,38,27.70
2019,05,27,15,39,27.80
2019,05,27,15,40,27.80
2019,05,27,15,41,27.80
2019,05,27,15,42,27.80
2019,05,27,15,43,27.80
2019,05,27,15,44,27.80
2019,05,27,15,45,27.80
2019,05,27,15,46,27.80
2019,05,27,15,47,27.70
2019,05,27,15,48,27.70
2019,05,27,15,49,27.70
2019,05,27,15,50,27.60
2019,05,27,15,51,27.60
2019,05,27,15,52,27.70
2019,05,27,15,53,27.70
2019,05,27,15,54,27.70
2019,05,27,15,55,27.70
2019,05,27,15,56,27.90
2019,05,27,15,57,27.90
2019,05,27,15,58,28.00
2019,05,27,15,59,28.00
2019,05,27,16,00,28.10
2019,05,27,16,01,28.20
2019,05,27,16,02,28.30
2019,05,27,16,03,28.30
2019,05,27,16,04,28.30
2019,05,27,16,05,28.40
2019,05,27,16,06,28.40
2019,05,27,16,07,28.40
2019,05,27,16,08,28.40
2019,05,27,16,09,28.40
2019,05,27,16,10,28.30
2019,05,27,16,11,28.30
2019,05,27,16,12,28.30
2019,05,27,16,13,28.40
2019,05,27,16,14,28.40
2019,05,27,16,15,28.40
2019,05,27,16,16,28.50
2019,05,27,16,17,28.60
2019,05,27,16,18,28.60
2019,05,27,16,19,28.60
2019,05,27,16,20,28.60
2019,05,27,16,21,28.60
2019,05,27,16,22,28.70
2019,05,27,16,23,28.70
2019,05,27,16,24,28.70
2019,05,27,16,25,28.70
2019,05,27,16,26,28.60
2019,05,27,16,27,28.60
2019,05,27,16,28,28.60
2019,05,27,16,29,28.60
2019,05,27,16,30,28.60
2019,05,27,16,31,28.60
2019,05,27,16,32,28.60
2019,05,27,16,33,28.60
2019,05,27,16,34,28.70
2019,05,27,16,35,28.70
2019,05,27,16,36,28.70
2019,05,27,16,37,28.70
2019,05,27,16,38,28.60
2019,05,27,16,39,28.60
2019,05,27,16,40,28.60
2019,05,27,16,41,28.70
2019,05,27,16,42,28.80
2019,05,27,16,43,28.80
2019,05,27,16,44,28.90
2019,05,27,16,45,28.90
2019,05,27,16,46,28.90
2019,05,27,16,47,29.00
2019,05,27,16,48,29.00
2019,05,27,16,49,29.00
2019,05,27,16,50,29.00
2019,05,27,16,51,29.00
2019,05,27,16,52,29.00
2019,05,27,16,53,29.00
2019,05,27,16,54,29.00
2019,05,27,16,55,29.00
2019,05,27,16,56,29.00
2019,05,27,16,57,29.10
2019,05,27,16,58,29.00
2019,05,27,16,59,29.00
2019,05,27,17,00,28.90
2019,05,27,17,01,28.90
2019,05,27,17,02,28.90
2019,05,27,17,03,28.90
2019,05,27,17,04,28.90
2019,05,27,17,05,28.90
2019,05,27,17,06,29.00
2019,05,27,17,07,29.00
2019,05,27,17,08,29.10
2019,05,27,17,09,29.20
2019,05,27,17,10,29.30
2019,05,27,17,11,29.40
2019,05,27,17,12,29.40
2019,05,27,17,13,29.50
2019,05,27,17,14,29.60
2019,05,27,17,15,29.70
2019,05,27,17,16,29.70
2019,05,27,17,17,29.70
2019,05,27,17,18,29.70
2019,05,27,17,19,29.60